ORBCOMM FM 38

Satellite information

Favourite Embed

Satellite Type and Status

PAYLOADIN ORBIT

Key statistics

Satellite ORBCOMM FM 38 at a glance.

Uptime

6387

Days in orbit

Revolutions

≈ 14.8

Per day

Orbit

LEO

Low Earth Orbit

Inclination

48.4

Latest

Satellite identification and parameters

Extended collection of information and parameters for ORBCOMM FM 38.

Object identification

Identified? True

Debris? False

Object name: ORBCOMM FM 38

International designator: 2008-031A

Object number (NORAD): 33060

Object ID (CCSDS): 33060

Country: ORBITAL TELECOMMUNICATIONS SATELLITE (GLOBALSTAR) (ORB)

Current information (Y/N): Y

RCS size: LARGE

Orbital parameters

Period: 97.149 minutes

Inclination: 48.4377 deg

SMA: 7000.344 km

Apoapsis: 625.283 km

Periapsis: 619.136 km

RAAN: 187.1516 deg

Eccentricy: 0.00043903

Argument of periapsis: 92.0782 deg

Mean anomaly: 268.0636 deg

Mean motion: 14.82257495 rev/day

Mean motion (dot): 0.00003023 rev/day2

B* drag term: 0.00040121253 1/REarth

Two-line elements (TLE)

Creation date: Dec. 12, 2025, 10:14 a.m.

Reference frame: TEME

Reference center: EARTH

Epoch: Dec. 12, 2025, 12:55 a.m. UTC

TLE line 0: 0 ORBCOMM FM 38

TLE line 1: 1 33060U 08031A 25346.03869540 .00003023 00000-0 40121-3 0 9998

TLE line 2: 2 33060 48.4377 187.1516 0004390 92.0782 268.0636 14.82257495941125

Live tracking on map

Real-time ground track for satellite ORBCOMM FM 38.

In-orbit conjunctions

There are no conjunctions computed for ORBCOMM FM 38, at the moment. Check back to stay up to date, as we update our databases every day.

Go to all conjunctions

Associated space launch

LEO communications satellites

ORBCOMM FM 38 was lifted into orbit during the mission ‘Kosmos-3M | Orbcomm FM 37 to 41 & CDS 3’, on board a Kosmos-3M space rocket.

The launch took place on June 19, 2008, 6:36 a.m. from 107.

For more information about the launch, click the button.

Launch to space Kosmos-3M | Orbcomm FM 37 to 41 & CDS 3
Kosmos-3M | Orbcomm FM 37 to 41 & CDS 3

Agency: N/A

Status: Launch Successful

Launch date: June 19, 2008, 6:36 a.m. UTC

Rocket: Kosmos-3M

Launch pad: 107

Location: Kapustin Yar, Russian Federation

...

Latest news about this satellite

There are no fresh news available about this satellite. Check back as we update our databases every day.


Newsletter sign-up

Weekly statistics, charts and insights to help you stay on top of the space industry.